Flag for Australia Weather past 2 weeks in Mudgee, New South Wales, Australia

Now
60 °F

Overcast.


Feels Like: 60 °F
Forecast: 37 / 62 °F
Wind: 16 mph from Southeast

Location: Mudgee Aws

Current Time: Aug 28, 2014 at 5:16:06 PM

Latest Report: Aug 28, 2014 at 3:00 PM


Visibility: N/A

Pressure: 30.27 "Hg

Humidity: 51%

Dew point: 42 °F

Location of MudgeeLocation

Historic Weather in Mudgee — Graph

°F

Mudgee temperature yesterday

Maximum temperature yesterday: 61 °F (at 2:00 PM)
Minimum temperature yesterday: 48 °F (at 9:00 PM)
Average temperature yesterday: 54 °F

Past Weeks' High & Low Weather Summary

 TemperatureHumidityPressure
High65 °F (Aug 24, 3:00 PM)99% (Aug 25, 9:00 AM)30.56 "Hg (Aug 25, 9:00 AM)
Low33 °F (Aug 20, 3:00 AM)31% (Aug 14, 3:00 PM)29.69 "Hg (Aug 18, 5:00 AM)
Average51 °F76%30.22 "Hg
* Reported Aug 13 3:00 PM — Aug 28 3:00 PM, Mudgee, Weather by CustomWeather, © 2014

Note: Actual official high and low records may vary slightly from our data, if they occured in-between our weather recording intervals... More about our weather records

Advertising

Mudgee weather history for previous 24 hours

 ConditionsComfort  
Time TempWeatherWind HumidityBarometerVisibility
3:00 PM
Aug 28
60 °FOvercast.16 mph51%30.27 "HgN/A
2:00 PM62 °FRefreshingly cool.9 mph47%30.28 "HgN/A
12:00 PM59 °FOvercast.12 mph62%30.31 "HgN/A
11:00 AM57 °FCool.10 mph61%30.32 "HgN/A
9:00 AM55 °FPartly sunny.14 mph67%30.31 "HgN/A
8:00 AM50 °FCool.No wind81%30.29 "HgN/A
6:00 AM44 °FPassing clouds.7 mph83%30.27 "HgN/A
5:00 AM43 °FQuite cool.6 mph83%30.26 "HgN/A
3:00 AM45 °FCool.7 mph77%30.25 "HgN/A
2:00 AM46 °FCool.6 mph77%30.27 "HgN/A
12:00 AM46 °FCool.7 mph81%30.29 "HgN/A
11:00 PM
Aug 27
49 °FCool.9 mph78%30.29 "HgN/A
9:00 PM48 °FCool.6 mph82%30.29 "HgN/A
8:00 PM51 °FCool.6 mph78%30.29 "HgN/A
6:00 PM54 °FOvercast.10 mph68%30.26 "HgN/A
5:00 PM57 °FCool.8 mph64%30.24 "HgN/A
Weather by CustomWeather, © 2014

See weather overviewHow to use our weather pages